Hourly Data Report for September 09, 2017

All times are specified in Local Standard Time (LST). Add 1 hour to adjust for Daylight Saving Time where and when it is observed.

ST. JOHN'S INTL A
NEWFOUNDLAND

47°37'07.000" N
52°45'09.000" W
140.50 m
8403505
71801
YYT

Download Data

Hourly Data (September 2017)
Hourly Data Report for September 9, 2017
Temp Definition
°C
Dew Point Temp Definition
°C
Rel Hum Definition
%
Wind Dir Definition
10's deg

Wind Spd Definition
km/h
Visibility Definition
km
Stn Press Definition
kPa
Hmdx Definition


Wind Chill Definition


Weather Definition


TIME
00:30 Legend Double Dagger 15.8 14.8 94 26 18 24.1 100.44     LegendNANA
01:30 Legend Double Dagger 15.5 14.8 96 30 19 24.1 100.41     LegendNANA
02:30 Legend Double Dagger 15.5 14.7 95 24 21 24.1 100.53     Cloudy
03:30 Legend Double Dagger 15.4 14.8 96 27 14 24.1 100.53     Rain
04:30 Legend Double Dagger 15.1 14.5 96 21 15 24.1 100.55     Rain
05:30 Legend Double Dagger 13.8 12.3 90 24 16 16.1 100.64     Rain
06:30 Legend Double Dagger 13.4 12.7 96 19 10 24.1 100.65     Rain
07:30 Legend Double Dagger 13.6 12.4 92 22 7 24.1 100.69     Rain
08:30 Legend Double Dagger 14.0 13.5 97 19 9 12.9 100.75     Rain
09:30 Legend Double Dagger 14.2 13.8 98 15 10 12.9 100.73     Rain
10:30 Legend Double Dagger 14.1 13.7 98 13 9 12.9 100.65     Rain
11:30 Legend Double Dagger 13.9 13.6 98 16 15 16.1 100.72     Rain
12:30 Legend Double Dagger 14.1 13.7 97 13 18 12.9 100.65     Moderate Rain
13:30 Legend Double Dagger 13.6 13.3 98 12 17 12.9 100.60     Rain
14:30 Legend Double Dagger 13.5 13.3 99 10 15 2.4 100.58     Rain,Fog
15:30 Legend Double Dagger 13.5 13.4 99 6 13 0.4 100.56     Drizzle,Fog
16:30 Legend Double Dagger 13.0 12.9 99 5 19 0.4 100.56     Rain,Fog
17:30 Legend Double Dagger 12.8 12.7 100 5 18 0.4 100.53     Rain,Fog
18:30 Legend Double Dagger 12.8 12.8 100 4 21 0.6 100.52     Rain,Fog
19:30 Legend Double Dagger 12.8 12.8 100 4 26 0.6 100.51     Rain,Fog
20:30 Legend Double Dagger 12.8 12.7 100 4 14 0.6 100.50     Rain,Fog
21:30 Legend Double Dagger 12.9 12.8 100 4 16 0.4 100.50     Rain,Fog
22:30 Legend Double Dagger 12.7 12.7 100 5 16 0.6 100.43     Rain,Fog
23:30 Legend Double Dagger 12.7 12.7 100 2 16 0.6 100.40     Rain,Fog

Notes on Data Quality.

Legend

  • E = Estimated
  • M = Missing
  • NA = Not Available
  • ‡ = Partner data that is not subject to review by the National Climate Archives
Date modified: